Weather History for KBKE - September, 2013

Change the Weather History Date:

Monday, September 30, 2013

  Actual Average Record
Temperature  
Mean Temperature 47 °F 50 °F  
Max Temperature 60 °F 69 °F 90 °F (1963)
Min Temperature 34 °F 32 °F 17 °F (1954)
Degree Days  
Heating Degree Days 18 15  
Month to date heating degree days 239 290  
Since 1 July heating degree days 271 442  
Cooling Degree Days 0 0  
Month to date cooling degree days 28 9  
Year to date cooling degree days 258 169  
Moisture  
Dew Point 35 °F    
Average Humidity 63    
Maximum Humidity 93    
Minimum Humidity 33    
Precipitation  
Precipitation 0.07 in 0.02 in 0.36 in (1957)
Month to date precipitation 1.62 0.55  
Year to date precipitation 7.77 7.62  
Sea Level Pressure  
Sea Level Pressure 29.85 in    
Wind  
Wind Speed 5 mph (South)    
Max Wind Speed 20 mph    
Max Gust Speed 25 mph    
Visibility 10 miles    
Events Rain    
T = Trace of Precipitation, MM = Missing Value Source: NWS Daily Summary

Daily Weather History Graph

Daily Weather History Graph

Search for Another Location

Airport or City:

Trip Planner

Search our weather history database for the weather conditions in past years. The results will help you decide how hot, cold, wet, or windy it might be!

Date:

Astronomy

Sep. 30, 2013 Rise Set
Actual Time 6:48 AM PDT 6:32 PM PDT
Civil Twilight 6:19 AM PDT 7:02 PM PDT
Nautical Twilight 5:45 AM PDT 7:36 PM PDT
Astronomical Twilight 5:10 AM PDT 8:10 PM PDT
Moon 2:20 AM PDT (9/30) 4:14 PM PDT (9/30)
Length of Visible Light 12h 42m
Length of Day
11h 44m
Waning Crescent, 18% of the Moon is Illuminated
Sep 30
Waning Crescent
Oct 4
New
Oct 11
First Quarter
Oct 18
Full
Oct 26
Last Quarter

Hourly Weather History & Observations

Time (PDT) Temp. Windchill Dew Point Humidity Pressure Visibility Wind Dir Wind Speed Gust Speed Precip Events Conditions
12:53 AM 46.9 °F - 44.1 °F 90% 29.65 in 10.0 mi ESE 15.0 mph - 0.01 in Rain Light Rain
1:53 AM 48.0 °F - 46.0 °F 93% 29.64 in 10.0 mi East 6.9 mph - 0.01 in Rain Light Rain
2:53 AM 48.9 °F - 46.9 °F 93% 29.62 in 10.0 mi SSE 3.5 mph - 0.01 in Rain Light Rain
3:53 AM 46.9 °F - 44.1 °F 90% 29.68 in 9.0 mi NNW 19.6 mph 24.2 mph 0.04 in Rain Rain
4:53 AM 46.0 °F - 41.0 °F 83% 29.73 in 10.0 mi Calm Calm - 0.01 in Rain Light Rain
5:53 AM 45.0 °F 41.8 °F 41.0 °F 86% 29.77 in 10.0 mi ESE 5.8 mph - 0.00 in   Mostly Cloudy
6:53 AM 42.1 °F 38.4 °F 37.0 °F 82% 29.78 in 10.0 mi NE 5.8 mph - N/A   Clear
7:53 AM 45.0 °F - 37.9 °F 76% 29.81 in 10.0 mi Calm Calm - N/A   Clear
8:53 AM 48.9 °F - 36.0 °F 61% 29.83 in 10.0 mi Calm Calm - N/A   Clear
9:53 AM 52.0 °F - 33.1 °F 49% 29.84 in 10.0 mi East 4.6 mph - N/A   Clear
10:53 AM 55.0 °F - 30.9 °F 40% 29.86 in 10.0 mi Calm Calm - N/A   Clear
11:53 AM 57.0 °F - 28.0 °F 33% 29.87 in 10.0 mi NW 4.6 mph - N/A   Clear
12:53 PM 57.9 °F - 28.9 °F 33% 29.88 in 10.0 mi Calm Calm - N/A   Clear
1:53 PM 59.0 °F - 30.0 °F 33% 29.88 in 10.0 mi SSW 9.2 mph - N/A   Clear
2:53 PM 59.0 °F - 30.9 °F 35% 29.90 in 7.0 mi SW 11.5 mph - N/A   Clear
3:53 PM 57.9 °F - 30.9 °F 36% 29.93 in 10.0 mi WSW 9.2 mph - N/A   Clear
4:53 PM 53.1 °F - 32.0 °F 45% 29.94 in 10.0 mi SW 6.9 mph - N/A   Clear
5:53 PM 51.1 °F - 34.0 °F 52% 29.95 in 10.0 mi SSW 5.8 mph - N/A   Clear
6:53 PM 48.9 °F - 33.1 °F 54% 29.97 in 10.0 mi SSW 10.4 mph - N/A   Clear
7:53 PM 46.9 °F - 32.0 °F 56% 29.98 in 10.0 mi SSW 4.6 mph - N/A   Clear
8:53 PM 41.0 °F - 32.0 °F 70% 29.99 in 10.0 mi Calm Calm - N/A   Clear
9:53 PM 43.0 °F - 33.1 °F 68% 29.98 in 10.0 mi Calm Calm - N/A   Clear
10:53 PM 43.0 °F 39.5 °F 32.0 °F 65% 29.98 in 10.0 mi SSW 5.8 mph - N/A   Clear
11:53 PM 37.0 °F 34.5 °F 30.9 °F 79% 29.99 in 10.0 mi NE 3.5 mph - N/A   Clear